User: anonymous   Login
Location: Unspecified
(0.0000°N, 0.0000°E)
Time: 06:15:33
(UTC+00:00)
Language:

PicSat - Orbit

View from above orbital plane
View from above orbital plane
View from above satellite
View from above satellite

Ground track
Ground track

The orbit data is extracted from the following two-line orbital elements,

1 43131U 18004W   19083.20245575  .00001537  00000-0  66865-4 0  9997
2 43131  97.4977 151.3165 0009330 187.5277 172.5821 15.23772956 66343
Epoch (UTC): 24 March 2019 04:51:32
Eccentricity: 0.0009330
inclination: 97.4977°
perigee height: 488 km
apogee height: 501 km
right ascension of ascending node: 151.3165°
argument of perigee: 187.5277°
revolutions per day: 15.23772956
mean anomaly at epoch: 172.5821°
orbit number at epoch: 6634

The dashed part of the orbit path shows where the satellite is in the earth's shadow,  

DLR